Weather History for Prairie Du Chien, WI

Change the Weather History Date:

Sunday, November 4, 2012

  Actual Average Record
Temperature  
Mean Temperature 42 °F -  
Max Temperature 46 °F 50 °F 75 °F (2008)
Min Temperature 37 °F 32 °F 5 °F (1991)
Degree Days  
Heating Degree Days 24    
Moisture  
Dew Point 34 °F    
Average Humidity 77    
Maximum Humidity 93    
Minimum Humidity 57    
Precipitation  
Precipitation 0.01 in - - ()
Sea Level Pressure  
Sea Level Pressure 30.20 in    
Wind  
Wind Speed 1 mph (ESE)    
Max Wind Speed 6 mph    
Max Gust Speed -    
Visibility 9 miles    
Events Rain    
Averages and records for this station are not official NWS values.
T = Trace of Precipitation, MM = Missing Value Source: NWS Daily Summary

Daily Weather History Graph

Daily Weather History Graph

Search for Another Location

Airport:

Trip Planner

Search our weather history database for the weather conditions in past years. The results will help you decide how hot, cold, wet, or windy it might be!

Date:

Astronomy

Nov. 04, 2012 Rise Set
Actual Time 6:43 AM CST 4:52 PM CST
Civil Twilight 6:13 AM CST 5:21 PM CST
Nautical Twilight 5:39 AM CST 5:55 PM CST
Astronomical Twilight 5:06 AM CST 6:28 PM CST
Moon 9:29 PM CST (11/4) 11:29 AM CST (11/4)
Length of Visible Light 11h 08m
Length of Day
10h 08m
Waning Gibbous, 72% of the Moon is Illuminated
Nov 4
Waning Gibbous
Nov 6
Last Quarter
Nov 13
New
Nov 20
First Quarter
Nov 28
Full

Hourly Weather History & Observations

Time (CST) Temp. Windchill Dew Point Humidity Pressure Visibility Wind Dir Wind Speed Gust Speed Precip Events Conditions
12:15 AM 39.2 °F - 32.0 °F 75% 30.21 in 10.0 mi Calm Calm - N/A   Mostly Cloudy
12:35 AM 39.2 °F - 32.0 °F 75% 30.21 in 10.0 mi Calm Calm - N/A   Mostly Cloudy
12:55 AM 37.4 °F 34.9 °F 32.0 °F 81% 30.21 in 10.0 mi ENE 3.5 mph - N/A   Overcast
1:15 AM 39.2 °F - 32.0 °F 75% 30.22 in 10.0 mi Calm Calm - N/A   Overcast
1:35 AM 37.4 °F - 32.0 °F 81% 30.22 in 10.0 mi Calm Calm - N/A   Overcast
1:55 AM 39.2 °F - 32.0 °F 75% 30.22 in 10.0 mi Calm Calm - N/A   Overcast
1:15 AM 39.2 °F - 32.0 °F 75% 30.23 in 10.0 mi Calm Calm - N/A   Overcast
1:35 AM 39.2 °F - 32.0 °F 75% 30.23 in 10.0 mi Calm Calm - N/A   Overcast
1:55 AM 39.2 °F - 32.0 °F 75% 30.23 in 10.0 mi Calm Calm - N/A   Overcast
2:15 AM 39.2 °F - 32.0 °F 75% 30.23 in 10.0 mi Calm Calm - N/A   Overcast
2:35 AM 39.2 °F - 32.0 °F 75% 30.24 in 10.0 mi Calm Calm - N/A Rain Light Rain
2:55 AM 39.2 °F - 33.8 °F 81% 30.24 in 10.0 mi Calm Calm - N/A Rain Light Rain
3:15 AM 37.4 °F - 33.8 °F 87% 30.24 in 7.0 mi Calm Calm - N/A Rain Rain
3:35 AM 39.2 °F - 35.6 °F 87% 30.24 in 7.0 mi Calm Calm - N/A   Drizzle
3:55 AM 37.4 °F - 35.6 °F 93% 30.24 in 7.0 mi Calm Calm - N/A   Drizzle
4:15 AM 37.4 °F - 35.6 °F 93% 30.24 in 7.0 mi Calm Calm - 0.01 in Rain Rain
4:35 AM 37.4 °F - 35.6 °F 93% 30.24 in 7.0 mi Calm Calm - 0.01 in   Mostly Cloudy
4:55 AM 37.4 °F - 35.6 °F 93% 30.24 in 7.0 mi Calm Calm - 0.01 in   Overcast
5:15 AM 37.4 °F - 35.6 °F 93% 30.24 in 7.0 mi Calm Calm - N/A   Overcast
5:35 AM 37.4 °F - 35.6 °F 93% 30.24 in 5.0 mi Calm Calm - N/A   Overcast
5:55 AM 37.4 °F - 35.6 °F 93% 30.24 in 5.0 mi Calm Calm - N/A   Overcast
6:15 AM 37.4 °F - 35.6 °F 93% 30.24 in 5.0 mi Calm Calm - N/A   Overcast
6:35 AM 37.4 °F - 35.6 °F 93% 30.24 in 5.0 mi Calm Calm - N/A   Overcast
6:55 AM 37.4 °F - 35.6 °F 93% 30.25 in 5.0 mi Calm Calm - N/A   Light Drizzle
7:15 AM 37.4 °F - 35.6 °F 93% 30.25 in 3.0 mi Calm Calm - N/A   Overcast
7:35 AM 37.4 °F - 35.6 °F 93% 30.24 in 3.0 mi Calm Calm - N/A   Overcast
7:55 AM 37.4 °F - 35.6 °F 93% 30.24 in 4.0 mi Calm Calm - N/A   Overcast
8:15 AM 39.2 °F - 35.6 °F 87% 30.24 in 7.0 mi Calm Calm - N/A   Overcast
8:35 AM 39.2 °F - 35.6 °F 87% 30.24 in 7.0 mi Calm Calm - N/A   Overcast
8:55 AM 39.2 °F - 35.6 °F 87% 30.24 in 10.0 mi Calm Calm - N/A   Overcast
9:15 AM 39.2 °F - 35.6 °F 87% 30.24 in 10.0 mi Calm Calm - N/A   Scattered Clouds
9:35 AM 41.0 °F - 35.6 °F 81% 30.24 in 10.0 mi Calm Calm - N/A   Mostly Cloudy
9:55 AM 41.0 °F - 35.6 °F 81% 30.23 in 10.0 mi Calm Calm - N/A   Overcast
10:15 AM 42.8 °F - 37.4 °F 81% 30.23 in 10.0 mi Calm Calm - N/A   Scattered Clouds
10:35 AM 42.8 °F - 35.6 °F 76% 30.23 in 10.0 mi Calm Calm - N/A   Mostly Cloudy
10:55 AM 44.6 °F - 35.6 °F 71% 30.23 in 10.0 mi Calm Calm - N/A   Overcast
11:15 AM 44.6 °F - 35.6 °F 71% 30.22 in 10.0 mi Calm Calm - N/A   Overcast
11:35 AM 44.6 °F - 35.6 °F 71% 30.22 in 10.0 mi Calm Calm - N/A   Overcast
11:55 AM 44.6 °F - 35.6 °F 71% 30.21 in 10.0 mi Calm Calm - N/A   Overcast
12:15 PM 46.4 °F 45.2 °F 35.6 °F 66% 30.20 in 10.0 mi SW 3.5 mph - N/A   Overcast
12:35 PM 46.4 °F - 33.8 °F 62% 30.19 in 10.0 mi Calm Calm - N/A   Overcast
12:55 PM 46.4 °F 45.2 °F 35.6 °F 66% 30.19 in 10.0 mi SSW 3.5 mph - N/A   Overcast
1:15 PM 46.4 °F 45.2 °F 35.6 °F 66% 30.18 in 10.0 mi ESE 3.5 mph - N/A   Overcast
1:35 PM 46.4 °F - 33.8 °F 62% 30.18 in 10.0 mi Calm Calm - N/A   Overcast
1:55 PM 46.4 °F 45.2 °F 33.8 °F 62% 30.17 in 10.0 mi ESE 3.5 mph - N/A   Overcast
2:15 PM 46.4 °F - 33.8 °F 62% 30.17 in 10.0 mi Calm Calm - N/A   Overcast
2:35 PM 46.4 °F 45.2 °F 33.8 °F 62% 30.17 in 10.0 mi SSE 3.5 mph - N/A   Overcast
2:55 PM 46.4 °F - 32.0 °F 57% 30.16 in 10.0 mi Calm Calm - N/A   Overcast
3:15 PM 46.4 °F - 32.0 °F 57% 30.17 in 10.0 mi Calm Calm - N/A   Overcast
3:35 PM 46.4 °F - 32.0 °F 57% 30.16 in 10.0 mi Calm Calm - N/A   Overcast
3:55 PM 46.4 °F - 33.8 °F 62% 30.16 in 10.0 mi Calm Calm - N/A   Overcast
4:15 PM 46.4 °F 45.2 °F 33.8 °F 62% 30.16 in 10.0 mi ESE 3.5 mph - N/A   Overcast
4:35 PM 46.4 °F - 35.6 °F 66% 30.16 in 10.0 mi Calm Calm - N/A   Overcast
4:55 PM 46.4 °F 45.2 °F 33.8 °F 62% 30.16 in 10.0 mi ESE 3.5 mph - N/A   Overcast
5:15 PM 44.6 °F 43.1 °F 33.8 °F 66% 30.16 in 10.0 mi East 3.5 mph - N/A   Overcast
5:35 PM 44.6 °F 42.2 °F 35.6 °F 71% 30.17 in 10.0 mi East 4.6 mph - N/A   Overcast
5:55 PM 44.6 °F 43.1 °F 33.8 °F 66% 30.17 in 10.0 mi East 3.5 mph - N/A   Overcast
6:15 PM 44.6 °F - 35.6 °F 71% 30.17 in 10.0 mi Calm Calm - N/A   Overcast
6:35 PM 44.6 °F - 35.6 °F 71% 30.17 in 10.0 mi Calm Calm - N/A   Overcast
6:55 PM 44.6 °F - 35.6 °F 71% 30.17 in 10.0 mi Calm Calm - N/A   Overcast
7:15 PM 44.6 °F 43.1 °F 35.6 °F 71% 30.17 in 10.0 mi East 3.5 mph - N/A   Overcast
7:35 PM 42.8 °F 39.3 °F 33.8 °F 70% 30.16 in 10.0 mi East 5.8 mph - N/A   Overcast
7:55 PM 42.8 °F 39.3 °F 33.8 °F 70% 30.16 in 10.0 mi East 5.8 mph - N/A   Scattered Clouds
8:15 PM 41.0 °F 39.0 °F 33.8 °F 76% 30.17 in 10.0 mi East 3.5 mph - N/A   Clear
8:35 PM 42.8 °F 41.1 °F 33.8 °F 70% 30.17 in 10.0 mi East 3.5 mph - N/A   Clear
8:55 PM 37.4 °F 34.9 °F 32.0 °F 81% 30.17 in 7.0 mi East 3.5 mph - N/A   Scattered Clouds
9:15 PM 37.4 °F - 32.0 °F 81% 30.17 in 7.0 mi Calm Calm - N/A   Mostly Cloudy
9:35 PM 37.4 °F - 33.8 °F 87% 30.18 in 7.0 mi Calm Calm - N/A   Overcast
9:55 PM 37.4 °F - 33.8 °F 87% 30.17 in 7.0 mi Calm Calm - N/A   Overcast
10:15 PM 39.2 °F - 33.8 °F 81% 30.17 in 7.0 mi Calm Calm - N/A   Overcast
10:35 PM 39.2 °F - 33.8 °F 81% 30.17 in 7.0 mi Calm Calm - N/A   Overcast
10:55 PM 39.2 °F 35.9 °F 33.8 °F 81% 30.16 in 7.0 mi East 4.6 mph - N/A   Overcast